"Pseudo-MPEC" for P11ZOCD

Created 2024 Oct 3 6:22:13 UT using Find_Orb

Click here for an explanation of pseudo-MPECs

 
 Astrometry: 
     P11ZOCD* C2024 10 01.44152501 42 53.643-45 34 00.09   ~A1C7 21.65wXNEOCPF51
     P11ZOCD  C2024 10 01.44999301 42 52.745-45 33 59.27   ~A1C7 21.27wXNEOCPF51
     P11ZOCD  C2024 10 01.45845401 42 51.866-45 33 58.22   ~A1C7 21.35wXNEOCPF51
     P11ZOCD  C2024 10 01.46690301 42 50.979-45 33 57.41   ~A1C7 21.13wXNEOCPF51
     P11ZOCD |C2024 10 02.23764001 41 34.370-45 32 08.30   ~A27M 21.1 GVNEOCP807
     P11ZOCD |C2024 10 02.24134001 41 33.980-45 32 07.60   ~A27M 21.1 GVNEOCP807
     P11ZOCD |C2024 10 02.24503001 41 33.580-45 32 07.10   ~A27M 21.1 GVNEOCP807

Station data:
(807) Cerro Tololo Observatory, La Serena  (S30.169133 W70.805900)  Chile.
   Observer R. Holmes. 0.61-m f/6.5 astrograph + CCD.
(F51) Pan-STARRS 1, Haleakala  (N20.707234 W156.255910)  US/Hawaii.
   Observers J. Bulger, T. Lowe, A. Schultz, M. Willman. Measurers K.
   Chambers, S. Chastel, T. de Boer, L. Denneau, J. Fairlamb, H. Flewelling,
   M. Huber, C.-C. Lin, E. Magnier, Y. Ramanjooloo, R. Wainscoat, R. Weryk.
   1.8-m Ritchey-Chrétien + CCD.

Orbital elements:  P11ZOCD
   Perihelion 2024 May 12.32636 +/- 171 TT =  7:49:57 (JD 2460442.82636)
Epoch 2024 Oct  2.0 TT = JDT 2460585.5   Earth MOID: 0.1845      AutoNEOCP
M  37.18514098 +/- 41               (J2000 ecliptic)
n   0.26063076 +/- 0.131            Peri.  171.46106 +/- 100
a   2.42727470 +/- 0.815            Node   100.15687 +/- 26
e   0.5065681 +/- 0.248             Incl.   26.52622 +/- 7
P   3.78162                H 18.63  G  0.15   U 11.4  SR
q 1.19769475 +/- 0.485    Q 3.65685465 +/- 5.02
From 7 observations 2024 Oct. 1-2 (19.3 hr); mean residual 0".09
Residuals in arcseconds: 
241001 F51  .16+  .10+    241001 F51  .11-  .12-    241002 807  .14-  .02+    
241001 F51  .03-  .03-    241002 807  .12+  .07-    
241001 F51  .02-  .05+    241002 807  .05+  .07+    

Ephemerides (geocentric):
Date (UTC) HH   RA             Dec           delta  r     elong  mag " sig PA
---- --------  ------------   ------------  ------ ------ -----  --- --------
2024 10 03 06  01 39 53.933   -45 29 15.23  1.0838 1.8782 128.6 21.3 13.9  70
2024 10 03 07  01 39 49.806   -45 29 07.36  1.0841 1.8785 128.6 21.3 14.8  69
2024 10 03 08  01 39 45.679   -45 28 59.43  1.0844 1.8788 128.6 21.3 15.7  69
2024 10 03 09  01 39 41.552   -45 28 51.42  1.0847 1.8791 128.6 21.3 16.7  69
2024 10 03 10  01 39 37.427   -45 28 43.36  1.0850 1.8793 128.6 21.3 17.7  69
2024 10 03 11  01 39 33.301   -45 28 35.23  1.0854 1.8796 128.6 21.3 18.8  69
2024 10 03 12  01 39 29.177   -45 28 27.03  1.0857 1.8799 128.6 21.3 19.8  69
2024 10 03 13  01 39 25.053   -45 28 18.76  1.0860 1.8801 128.6 21.3 20.9  69
2024 10 03 14  01 39 20.930   -45 28 10.43  1.0863 1.8804 128.6 21.3 22.0  69
2024 10 03 15  01 39 16.807   -45 28 02.04  1.0866 1.8807 128.6 21.3 23.2  69
2024 10 03 16  01 39 12.685   -45 27 53.57  1.0869 1.8809 128.6 21.3 24.4  68
2024 10 03 17  01 39 08.564   -45 27 45.05  1.0872 1.8812 128.6 21.3 25.6  68
2024 10 03 18  01 39 04.443   -45 27 36.45  1.0875 1.8815 128.6 21.3 26.8  68
2024 10 03 19  01 39 00.323   -45 27 27.79  1.0879 1.8818 128.6 21.3 28.1  68
2024 10 03 20  01 38 56.204   -45 27 19.07  1.0882 1.8820 128.6 21.3 29.4  68
2024 10 03 21  01 38 52.085   -45 27 10.28  1.0885 1.8823 128.6 21.3 30.7  68
2024 10 03 22  01 38 47.968   -45 27 01.42  1.0888 1.8826 128.6 21.3 32.1  68
2024 10 03 23  01 38 43.851   -45 26 52.50  1.0891 1.8828 128.6 21.3 33.5  68
2024 10 04 00  01 38 39.734   -45 26 43.51  1.0894 1.8831 128.6 21.3 34.9  68
2024 10 04 01  01 38 35.619   -45 26 34.46  1.0898 1.8834 128.6 21.3 36.3  67
2024 10 04 02  01 38 31.504   -45 26 25.34  1.0901 1.8836 128.6 21.3 37.8  67
2024 10 04 03  01 38 27.390   -45 26 16.15  1.0904 1.8839 128.5 21.3 39.3  67
2024 10 04 04  01 38 23.277   -45 26 06.90  1.0907 1.8842 128.5 21.3 40.8  67
2024 10 04 05  01 38 19.165   -45 25 57.59  1.0910 1.8844 128.5 21.3 42.4  67
2024 10 04 06  01 38 15.053   -45 25 48.21  1.0913 1.8847 128.5 21.3 43.9  67
2024 10 04 07  01 38 10.943   -45 25 38.76  1.0917 1.8850 128.5 21.3 45.6  67
2024 10 04 08  01 38 06.833   -45 25 29.25  1.0920 1.8853 128.5 21.3 47.2  67
2024 10 04 09  01 38 02.724   -45 25 19.67  1.0923 1.8855 128.5 21.3 48.9  67
2024 10 04 10  01 37 58.616   -45 25 10.03  1.0926 1.8858 128.5 21.3 50.6  67
2024 10 04 11  01 37 54.509   -45 25 00.32  1.0929 1.8861 128.5 21.3 52.3  66
2024 10 04 12  01 37 50.403   -45 24 50.55  1.0932 1.8863 128.5 21.3 54.1  66
2024 10 04 13  01 37 46.297   -45 24 40.71  1.0936 1.8866 128.5 21.3 55.9  66
2024 10 04 14  01 37 42.193   -45 24 30.81  1.0939 1.8869 128.5 21.3 57.7  66
2024 10 04 15  01 37 38.089   -45 24 20.84  1.0942 1.8871 128.5 21.3 59.6  66
2024 10 04 16  01 37 33.987   -45 24 10.81  1.0945 1.8874 128.5 21.3 61.4  66
2024 10 04 17  01 37 29.885   -45 24 00.71  1.0948 1.8877 128.5 21.3 63.3  66
2024 10 04 18  01 37 25.784   -45 23 50.54  1.0952 1.8879 128.5 21.3 65.3  66
2024 10 04 19  01 37 21.685   -45 23 40.31  1.0955 1.8882 128.5 21.3 67.3  66
2024 10 04 20  01 37 17.586   -45 23 30.02  1.0958 1.8885 128.5 21.3 69.3  66
2024 10 04 21  01 37 13.488   -45 23 19.66  1.0961 1.8888 128.5 21.3 71.3  65
2024 10 04 22  01 37 09.391   -45 23 09.24  1.0964 1.8890 128.5 21.3 73.3  65
2024 10 04 23  01 37 05.296   -45 22 58.75  1.0968 1.8893 128.5 21.4 75.4  65
2024 10 05 00  01 37 01.201   -45 22 48.19  1.0971 1.8896 128.5 21.4 77.6  65
2024 10 05 01  01 36 57.107   -45 22 37.57  1.0974 1.8898 128.5 21.4 79.7  65
2024 10 05 02  01 36 53.015   -45 22 26.89  1.0977 1.8901 128.5 21.4 81.9  65
2024 10 05 03  01 36 48.923   -45 22 16.14  1.0980 1.8904 128.5 21.4 84.1  65
2024 10 05 04  01 36 44.833   -45 22 05.33  1.0984 1.8906 128.5 21.4 86.3  65
2024 10 05 05  01 36 40.743   -45 21 54.45  1.0987 1.8909 128.5 21.4 88.6  65